When you browse on this site, cookies collect data to enhance your experience and personalize the content and advertising you see.
Visit our Privacy Policy to learn more. By continuing to use the site, you agree to this use of cookies and data.
  • In Portugal
  • List of Countries
  • For 7 days
  • Water Temperature
  • Satellite Maps
  • Weather Map
  • Weather Widgets
  • user-avatar
    Login

    Hourly Weather Wierzbinek

    Today, 24 April, Wednesday

    Time Temperature Precipitation Wind Pressure Humidity
    00:00 +11°C° 0 mm 7 mps 752 mmHg 56%
    01:00 +10°C° 0 mm 7 mps 752 mmHg 59%
    02:00 +10°C° 0 mm 7 mps 752 mmHg 60%
    03:00 +9°C° 0 mm 6 mps 752 mmHg 62%
    04:00 +9°C° 0 mm 6 mps 752 mmHg 63%
    05:00 +9°C° 0 mm 7 mps 752 mmHg 64%
    06:00 +10°C° 0 mm 7 mps 752 mmHg 65%
    07:00 +10°C° 0 mm 8 mps 752 mmHg 66%
    08:00 +12°C° 0 mm 8 mps 752 mmHg 63%
    09:00 +15°C° 0 mm 8 mps 752 mmHg 61%
    10:00 +16°C° 0 mm 8 mps 752 mmHg 58%
    11:00 +17°C° 0 mm 8 mps 752 mmHg 56%
    12:00 +18°C° 0 mm 8 mps 752 mmHg 54%
    13:00 +21°C° 0 mm 8 mps 752 mmHg 53%
    14:00 +20°C° 0 mm 7 mps 751 mmHg 55%
    15:00 +20°C° 0 mm 6 mps 751 mmHg 57%
    16:00 +20°C° 0 mm 6 mps 751 mmHg 59%
    17:00 +19°C° 0 mm 6 mps 751 mmHg 60%
    18:00 +19°C° 0 mm 5 mps 751 mmHg 61%
    19:00 +17°C° 0 mm 5 mps 751 mmHg 62%
    20:00 +16°C° 0 mm 5 mps 751 mmHg 65%
    21:00 +15°C° 0 mm 5 mps 751 mmHg 68%
    22:00 +15°C° 0 mm 5 mps 751 mmHg 71%
    23:00 +14°C° 0 mm 5 mps 751 mmHg 74%

    Tomorrow, 25 April, Thursday

    Time Temperature Precipitation Wind Pressure Humidity
    00:00 +13°C° 0 mm 4 mps 751 mmHg 77%
    01:00 +12°C° 0 mm 4 mps 751 mmHg 80%
    02:00 +12°C° 0 mm 4 mps 751 mmHg 80%
    03:00 +12°C° 0 mm 4 mps 751 mmHg 80%
    04:00 +12°C° 0 mm 4 mps 751 mmHg 80%
    05:00 +13°C° 0 mm 4 mps 751 mmHg 78%
    06:00 +14°C° 0 mm 4 mps 751 mmHg 75%
    07:00 +16°C° 0 mm 5 mps 751 mmHg 73%
    08:00 +17°C° 0 mm 5 mps 751 mmHg 68%
    09:00 +20°C° 0 mm 5 mps 751 mmHg 62%
    10:00 +22°C° 0 mm 5 mps 751 mmHg 57%
    11:00 +22°C° 0 mm 5 mps 751 mmHg 55%
    12:00 +22°C° 0 mm 5 mps 751 mmHg 54%
    13:00 +23°C° 0 mm 5 mps 751 mmHg 52%
    14:00 +22°C° 0 mm 4 mps 751 mmHg 53%
    15:00 +22°C° 0 mm 4 mps 751 mmHg 53%
    16:00 +22°C° 0 mm 3 mps 750 mmHg 54%
    17:00 +21°C° 0 mm 2 mps 750 mmHg 60%
    18:00 +19°C° 0 mm 2 mps 750 mmHg 65%
    19:00 +19°C° 0 mm 1 mps 750 mmHg 71%
    20:00 +18°C° 0 mm 1 mps 750 mmHg 74%
    21:00 +16°C° 0 mm 2 mps 751 mmHg 77%
    22:00 +15°C° 0 mm 2 mps 751 mmHg 80%
    23:00 +15°C° 0 mm 2 mps 751 mmHg 83%

    Day after tomorrow, 26 April, Friday

    Time Temperature Precipitation Wind Pressure Humidity
    00:00 +14°C° 0 mm 2 mps 750 mmHg 86%
    01:00 +14°C° 0 mm 2 mps 750 mmHg 88%
    02:00 +14°C° 0 mm 2 mps 750 mmHg 89%
    03:00 +14°C° 0 mm 2 mps 750 mmHg 89%
    04:00 +13°C° 0 mm 2 mps 750 mmHg 90%
    05:00 +15°C° 0 mm 2 mps 750 mmHg 84%
    06:00 +16°C° 0 mm 2 mps 749 mmHg 78%
    07:00 +18°C° 0 mm 2 mps 749 mmHg 71%
    08:00 +19°C° 0 mm 2 mps 749 mmHg 66%
    09:00 +21°C° 0 mm 2 mps 749 mmHg 60%
    10:00 +24°C° 0 mm 2 mps 749 mmHg 54%
    11:00 +25°C° 0 mm 3 mps 749 mmHg 51%
    12:00 +25°C° 0 mm 3 mps 748 mmHg 48%
    13:00 +26°C° 0 mm 3 mps 748 mmHg 45%
    14:00 +26°C° 0 mm 3 mps 748 mmHg 47%
    15:00 +25°C° 0 mm 2 mps 747 mmHg 48%
    16:00 +25°C° 0 mm 2 mps 747 mmHg 50%
    17:00 +23°C° 0 mm 1 mps 747 mmHg 54%
    18:00 +22°C° 0 mm 1 mps 747 mmHg 58%
    19:00 +20°C° 0 mm 1 mps 747 mmHg 61%
    20:00 +20°C° 0 mm 1 mps 747 mmHg 63%
    21:00 +19°C° 0 mm 1 mps 747 mmHg 64%
    22:00 +19°C° 0 mm 1 mps 747 mmHg 66%
    23:00 +18°C° 0 mm 1 mps 747 mmHg 69%

    27 April, Saturday

    Time Temperature Precipitation Wind Pressure Humidity
    00:00 +18°C° 0 mm 1 mps 746 mmHg 72%
    01:00 +16°C° 0 mm 1 mps 746 mmHg 75%
    02:00 +16°C° 0 mm 1 mps 746 mmHg 77%
    03:00 +15°C° 0 mm 1 mps 746 mmHg 80%
    04:00 +15°C° 0 mm 1 mps 746 mmHg 82%
    05:00 +16°C° 0 mm 2 mps 746 mmHg 80%
    06:00 +17°C° 0 mm 2 mps 746 mmHg 78%
    07:00 +17°C° 0 mm 3 mps 746 mmHg 76%
    08:00 +19°C° 0 mm 3 mps 746 mmHg 73%
    09:00 +20°C° 0 mm 4 mps 746 mmHg 70%
    10:00 +21°C° 0 mm 4 mps 746 mmHg 67%
    11:00 +20°C° 0 mm 5 mps 746 mmHg 70%
    12:00 +19°C° 0 mm 6 mps 746 mmHg 73%
    13:00 +19°C° 0 mm 6 mps 746 mmHg 76%
    14:00 +17°C° 0 mm 6 mps 747 mmHg 75%
    15:00 +17°C° 0 mm 6 mps 747 mmHg 74%
    16:00 +17°C° 0 mm 6 mps 747 mmHg 74%
    17:00 +15°C° 0 mm 6 mps 747 mmHg 75%
    18:00 +14°C° 0 mm 6 mps 748 mmHg 76%
    19:00 +13°C° 0 mm 6 mps 748 mmHg 77%
    20:00 +11°C° 0 mm 6 mps 749 mmHg 79%
    21:00 +10°C° 0 mm 5 mps 749 mmHg 80%
    22:00 +9°C° 0 mm 5 mps 750 mmHg 82%
    23:00 +9°C° 0 mm 5 mps 750 mmHg 81%

    28 April, Sunday

    Time Temperature Precipitation Wind Pressure Humidity
    00:00 +9°C° 0 mm 5 mps 751 mmHg 80%
    01:00 +8°C° 0 mm 5 mps 751 mmHg 79%
    02:00 +8°C° 0 mm 5 mps 751 mmHg 80%
    03:00 +8°C° 0 mm 5 mps 751 mmHg 81%
    04:00 +8°C° 0 mm 5 mps 752 mmHg 81%
    05:00 +8°C° 0 mm 5 mps 752 mmHg 81%
    06:00 +9°C° 0 mm 5 mps 752 mmHg 81%
    07:00 +9°C° 0 mm 5 mps 753 mmHg 81%
    08:00 +11°C° 0 mm 4 mps 753 mmHg 78%
    09:00 +11°C° 0 mm 4 mps 753 mmHg 75%
    10:00 +12°C° 0 mm 4 mps 753 mmHg 72%
    11:00 +13°C° 0 mm 3 mps 754 mmHg 69%
    12:00 +14°C° 0 mm 3 mps 754 mmHg 66%
    13:00 +14°C° 0 mm 3 mps 754 mmHg 63%
    14:00 +14°C° 0 mm 3 mps 754 mmHg 64%
    15:00 +14°C° 0 mm 3 mps 754 mmHg 64%
    16:00 +16°C° 0 mm 3 mps 754 mmHg 65%
    17:00 +14°C° 0 mm 3 mps 754 mmHg 67%
    18:00 +13°C° 0 mm 3 mps 754 mmHg 70%
    19:00 +12°C° 0 mm 3 mps 754 mmHg 73%
    20:00 +12°C° 0 mm 3 mps 755 mmHg 76%
    21:00 +11°C° 0 mm 3 mps 755 mmHg 79%
    22:00 +10°C° 0 mm 3 mps 755 mmHg 82%
    23:00 +10°C° 0 mm 3 mps 755 mmHg 82%

    29 April, Monday

    Time Temperature Precipitation Wind Pressure Humidity
    00:00 +10°C° 0 mm 3 mps 755 mmHg 82%
    01:00 +10°C° 0 mm 4 mps 754 mmHg 82%
    02:00 +10°C° 0 mm 4 mps 754 mmHg 85%
    03:00 +10°C° 0 mm 4 mps 754 mmHg 87%
    04:00 +10°C° 0 mm 4 mps 754 mmHg 90%
    05:00 +10°C° 0.2 mm 4 mps 754 mmHg 90%
    06:00 +9°C° 0.2 mm 5 mps 754 mmHg 90%
    07:00 +10°C° 0.2 mm 5 mps 754 mmHg 89%
    08:00 +10°C° 0.2 mm 5 mps 754 mmHg 89%
    09:00 +12°C° 0.2 mm 4 mps 754 mmHg 89%
    10:00 +13°C° 0.2 mm 4 mps 753 mmHg 88%
    11:00 +14°C° 0.1 mm 4 mps 753 mmHg 86%
    12:00 +16°C° 0.1 mm 3 mps 753 mmHg 83%
    13:00 +18°C° 0.1 mm 3 mps 753 mmHg 80%
    14:00 +19°C° 0.7 mm 3 mps 753 mmHg 75%
    15:00 +20°C° 0.7 mm 4 mps 752 mmHg 71%
    16:00 +21°C° 0.7 mm 5 mps 752 mmHg 66%
    17:00 +19°C° 0.1 mm 4 mps 752 mmHg 73%
    18:00 +17°C° 0.1 mm 3 mps 752 mmHg 81%
    19:00 +16°C° 0.1 mm 3 mps 752 mmHg 88%
    20:00 +14°C° 0 mm 3 mps 753 mmHg 89%
    21:00 +13°C° 0 mm 3 mps 753 mmHg 91%
    22:00 +11°C° 0 mm 3 mps 753 mmHg 93%
    23:00 +11°C° 0 mm 3 mps 753 mmHg 93%
    Show more